[[{"header":{"parameterUnit":"m.s-1","parameterCategory":1,"la1":30.2991,"la2":30.254,"lo1":-89.0895,"lo2":-89.0444,"dy":0.0017,"dx":0.0017,"nx":28,"ny":28,"refTime":"2025-09-11T09:00:00:Z","depth":0,"parameterNumber":2,"parameterNumberName":"U-component_of_WINDS"},"data":[0,0,0,0,0,0,0,0,0,0,0,0,0,0,0,0,0,0,0,0,0,0,0,0,0,0,0,0,0,0,0,0,0,0,0,0,0,0,0,0,0,0,0,0,0,0,0,0,0,0,0,0,0,0,0,0,0,0,-1.873,-1.8731,0,-1.8755,-1.8756,-1.8756,-1.8698,-1.8696,-1.8695,-1.8693,-1.8719,-1.8722,-1.8724,0,0,0,0,0,0,0,0,0,0,0,0,0,-1.8633,-1.8635,-1.873,-1.8731,-1.8731,-1.8755,-1.8756,-1.8756,-1.8699,-1.8696,-1.8694,-1.8692,-1.8718,-1.8721,-1.8724,0,0,0,0,0,0,0,0,0,0,0,0,0,-1.8669,-1.8636,-1.873,-1.8705,-1.8703,-1.8755,-1.8756,-1.8756,-1.8699,-1.8696,-1.8694,-1.8691,-1.8718,-1.8721,-1.8725,-1.8802,0,0,-1.8736,-1.8737,0,0,0,0,0,0,0,0,-1.8667,-1.8672,-1.8709,-1.8707,-1.8705,-1.8721,-1.8731,-1.8772,-1.87,-1.8701,-1.8693,-1.869,-1.8722,-1.8725,-1.8736,-1.8804,-1.8805,-1.8736,-1.8738,-1.874,-1.8741,0,0,0,0,0,0,0,-1.8664,-1.8671,-1.874,-1.8709,-1.8707,-1.8693,-1.8695,-1.8739,-1.8727,-1.87,-1.8696,-1.87,-1.8721,-1.8733,-1.8736,-1.8805,-1.8736,-1.8739,-1.8741,-1.8743,-1.8939,-1.8942,0,0,0,0,0,0,-1.8665,-1.8669,-1.8739,-1.8741,-1.8679,-1.8697,-1.8699,-1.8719,-1.8726,-1.8724,-1.8702,-1.8697,-1.8728,-1.8732,-1.8737,-1.883,-1.874,-1.8743,-1.8745,-1.8936,-1.894,-1.8943,0,0,0,0,0,0,-1.8663,-1.8672,-1.8738,-1.8704,-1.8711,-1.8702,-1.8724,-1.8721,-1.8733,-1.8727,-1.8725,-1.8717,-1.8726,-1.8732,-1.8787,-1.883,-1.8745,-1.8748,-1.8933,-1.8937,-1.8942,-1.9016,0,0,0,0,0,0,-1.8661,-1.8672,-1.8701,-1.8705,-1.8714,-1.8788,-1.8726,-1.8723,-1.8739,-1.8732,-1.874,-1.8739,-1.8724,-1.8782,-1.879,-1.8833,-1.8751,-1.8929,-1.8935,-1.894,-1.901,-1.9022,-1.9033,0,0,0,0,0,-1.8657,-1.8721,-1.8703,-1.8711,-1.875,-1.8791,-1.8795,-1.8777,-1.8743,-1.8772,-1.8769,-1.8739,-1.8823,-1.8788,-1.8797,-1.8842,-1.8926,-1.8933,-1.894,-1.9004,-1.902,-1.9033,0,0,0,0,0,0,-1.8722,-1.8721,-1.8701,-1.8767,-1.878,-1.8781,-1.8818,-1.8794,-1.8816,-1.8809,-1.8785,-1.8787,-1.8847,-1.8849,-1.881,-1.8918,-1.8869,-1.8878,-1.8915,-1.893,-1.8941,-1.894,-1.8754,0,0,0,0,0,-1.8744,-1.8777,-1.8774,-1.8833,-1.884,-1.8828,-1.8845,-1.8829,-1.8841,-1.8846,-1.8847,-1.886,-1.8889,-1.8909,-1.8936,-1.9009,-1.9011,-1.9044,-1.9056,-1.9066,-1.9075,-1.9115,-1.9131,-1.8966,-1.8966,-1.8966,0,0,-1.8789,-1.8793,-1.8815,-1.8846,-1.8853,-1.8889,-1.8833,-1.8872,-1.8898,-1.8852,-1.8905,-1.8906,-1.8918,-1.8983,-1.9012,-1.8987,-1.912,-1.9075,-1.9082,-1.9086,-1.9124,-1.9139,-1.9153,-1.897,-1.8969,-1.8969,0,0,-1.8891,-1.8896,-1.8947,-1.8956,-1.8968,-1.896,-1.8972,-1.8977,-1.8976,-1.9028,-1.8995,-1.9025,-1.9076,-1.9087,-1.9099,-1.9205,-1.9179,-1.9214,-1.9277,-1.9317,-1.933,-1.9342,-1.9381,-1.9396,-1.9223,-1.9223,-1.9223,0,-1.8947,-1.8999,-1.8976,-1.9018,-1.9033,-1.8992,-1.9044,-1.9053,-1.9074,-1.9086,-1.9057,-1.9121,-1.9126,-1.9194,-1.922,-1.9231,-1.9245,-1.9214,-1.933,-1.9341,-1.9352,-1.9389,-1.9404,-1.9227,-1.9227,-1.9226,-1.9226,0,-1.9067,-1.9103,-1.9143,-1.9164,-1.9183,-1.9229,-1.9214,-1.9236,-1.9219,-1.9214,-1.9268,-1.9273,-1.9301,-1.9315,-1.9298,-1.9381,-1.9365,-1.9334,-1.9284,-1.9372,-1.9407,-1.9421,-1.9233,-1.9232,-1.9231,-1.923,0,0,-1.9212,-1.922,-1.9235,-1.9244,-1.9255,-1.9283,-1.9327,-1.9354,-1.9375,-1.939,-1.9428,-1.9472,-1.9443,-1.9457,-1.9441,-1.9475,-1.9561,-1.944,-1.944,-1.9464,-1.9655,-1.968,-1.9697,-1.9543,-1.9546,-1.9548,-1.9654,0,-1.9314,-1.9391,-1.9373,-1.9449,-1.9484,-1.9445,-1.9484,-1.9495,-1.9491,-1.952,-1.9515,-1.9548,-1.9506,-1.9515,-1.9547,-1.9544,-1.96,-1.9536,-1.958,-1.9581,-1.958,-1.9715,-1.9742,-1.9842,-1.9668,-1.967,-1.9672,0,-1.9444,-1.9465,-1.9546,-1.9551,-1.9565,-1.9601,-1.9624,-1.9652,-1.9663,-1.9658,-1.9674,-1.9651,-1.9696,-1.9644,-1.9707,-1.9664,-1.968,-1.9682,-1.9685,-1.969,-1.9634,-1.9726,-1.9874,-1.989,-1.9693,-1.9691,-1.9689,0,-1.9544,-1.9592,-1.9647,-1.9656,-1.9664,-1.969,-1.9694,-1.9703,-1.9721,-1.9741,-1.9753,-1.9778,-1.9793,-1.9813,-1.9798,-1.9762,-1.9864,-1.981,-1.9862,-1.9863,-1.9887,-1.9886,-2.0042,-1.9894,-1.9894,-1.9893,-1.9893,0,-1.9662,-1.9713,-1.9692,-1.9726,-1.9783,-1.976,-1.9817,-1.9817,-1.9825,-1.9859,-1.9826,-1.9858,-1.9835,-1.9866,-1.9854,-1.9909,-1.9915,-1.9913,-1.9909,-1.9917,-1.9918,-1.9929,-1.9923,-1.9897,-1.9896,-1.9896,-1.9895,0,-1.9784,-1.9772,-1.983,-1.9832,-1.9834,-1.9876,-1.9878,-1.991,-1.9903,-1.9946,-1.9955,-1.9945,-1.9979,-1.9965,-2.0001,-1.9994,-2.0064,-2.005,-2.0061,-2.0058,-2.0111,-2.0107,-2.0281,-2.0304,-2.014,-2.0141,-2.0142,0,-1.9862,-1.99,-1.9907,-1.9927,-1.9934,-1.9967,-1.9985,-1.9964,-1.9984,-2.0001,-2.0031,-2.0062,-2.0087,-2.0143,-2.0139,-2.0167,-2.0155,-2.0214,-2.0159,-2.0166,-2.0159,-2.0158,-2.0162,-2.0226,-2.0228,-2.023,-2.0231,0,-2.0001,-1.9993,-2.002,-2.0046,-2.0068,-2.0087,-2.0103,-2.0122,-2.0101,-2.0126,-2.0161,-2.0179,-2.0216,-2.0249,-2.0273,-2.0278,-2.0252,-2.0248,-2.0262,-2.0271,-2.0277,-2.0277,-2.0093,-2.0245,-2.0243,-2.0242,-2.0241,-2.0241,-2.0104,-2.0137,-2.0148,-2.0179,-2.0189,-2.0205,-2.0236,-2.0233,-2.0262,-2.029,-2.0276,-2.0317,-2.0328,-2.0358,-2.0367,-2.0399,-2.0376,-2.0395,-2.0401,-2.0406,-2.0414,-2.0269,-2.0403,-2.0402,-2.0402,-2.0402,-2.0401,0,-2.0243,-2.0248,-2.0277,-2.0301,-2.0327,-2.0298,-2.0315,-2.0338,-2.0375,-2.0387,-2.0412,-2.0452,-2.0483,-2.0482,-2.0511,-2.0537,-2.0526,-2.0545,-2.0544,-2.0546,-2.0432,-2.0418,-2.0554,-2.0554,-2.0554,-2.0554,-2.0554,-2.0554,-2.0319,-2.0374,-2.0368,-2.0428,-2.0432,-2.0472,-2.0484,-2.0499,-2.0509,-2.0556,-2.0581,-2.058,-2.0587,-2.0616,-2.0644,-2.0642,-2.0655,-2.068,-2.0675,-2.0569,-2.0554,-2.054,-2.0527,-2.0683,-2.0683,-2.0786,-2.0787,-2.0788]},{"header":{"parameterUnit":"m.s-1","parameterCategory":1,"la1":30.2991,"la2":30.254,"lo1":-89.0895,"lo2":-89.0444,"dy":0.0017,"dx":0.0017,"nx":28,"ny":28,"refTime":"2025-09-11T09:00:00:Z","depth":0,"parameterNumber":3,"parameterNumberName":"V-component_of_WINDS"},"data":[0,0,0,0,0,0,0,0,0,0,0,0,0,0,0,0,0,0,0,0,0,0,0,0,0,0,0,0,0,0,0,0,0,0,0,0,0,0,0,0,0,0,0,0,0,0,0,0,0,0,0,0,0,0,0,0,0,0,-3.0395,-3.0395,0,-3.0398,-3.0398,-3.0398,-3.0348,-3.0347,-3.0345,-3.0344,-3.0346,-3.0347,-3.0348,0,0,0,0,0,0,0,0,0,0,0,0,0,-3.0347,-3.0348,-3.0395,-3.0395,-3.0395,-3.0398,-3.0398,-3.0398,-3.0348,-3.0347,-3.0345,-3.0343,-3.0345,-3.0347,-3.0348,0,0,0,0,0,0,0,0,0,0,0,0,0,-3.036,-3.0348,-3.0395,-3.0371,-3.0369,-3.0398,-3.0398,-3.0398,-3.0349,-3.0347,-3.0345,-3.0343,-3.0345,-3.0347,-3.0349,-3.0401,0,0,-3.0355,-3.0355,0,0,0,0,0,0,0,0,-3.036,-3.0362,-3.0375,-3.0373,-3.037,-3.0371,-3.0381,-3.0399,-3.0349,-3.0356,-3.0344,-3.0342,-3.0356,-3.0357,-3.0361,-3.0401,-3.0401,-3.0355,-3.0356,-3.0357,-3.0357,0,0,0,0,0,0,0,-3.0359,-3.0362,-3.0396,-3.0375,-3.0372,-3.036,-3.0359,-3.0384,-3.0367,-3.0355,-3.0352,-3.0353,-3.0354,-3.036,-3.0361,-3.0401,-3.0355,-3.0356,-3.0358,-3.0358,-3.0483,-3.0485,0,0,0,0,0,0,-3.0361,-3.0361,-3.0396,-3.0396,-3.036,-3.0362,-3.0362,-3.0372,-3.0367,-3.0364,-3.0355,-3.0351,-3.0357,-3.0359,-3.0361,-3.0422,-3.0357,-3.0359,-3.036,-3.0481,-3.0484,-3.0486,0,0,0,0,0,0,-3.036,-3.0365,-3.0396,-3.0378,-3.0381,-3.0365,-3.0378,-3.0374,-3.0379,-3.0366,-3.0363,-3.0364,-3.0356,-3.0358,-3.0391,-3.0421,-3.0359,-3.0361,-3.0479,-3.0482,-3.0485,-3.0545,0,0,0,0,0,0,-3.0359,-3.0365,-3.0385,-3.0379,-3.0382,-3.0427,-3.0379,-3.0375,-3.0383,-3.0377,-3.0374,-3.0371,-3.0354,-3.0389,-3.0393,-3.0423,-3.0363,-3.0476,-3.048,-3.0484,-3.054,-3.0549,-3.0558,0,0,0,0,0,-3.0358,-3.0401,-3.0386,-3.0391,-3.0407,-3.0429,-3.0431,-3.0411,-3.0385,-3.0405,-3.0397,-3.0371,-3.0417,-3.0393,-3.0397,-3.0428,-3.0474,-3.0479,-3.0484,-3.0536,-3.0547,-3.0557,0,0,0,0,0,0,-3.0411,-3.04,-3.0383,-3.0426,-3.0429,-3.042,-3.0445,-3.0424,-3.0434,-3.0429,-3.0403,-3.0403,-3.044,-3.0437,-3.041,-3.0478,-3.0441,-3.0447,-3.0479,-3.049,-3.0499,-3.0499,-3.0364,0,0,0,0,0,-3.0428,-3.0447,-3.0436,-3.0475,-3.0478,-3.0461,-3.047,-3.0454,-3.0456,-3.0457,-3.0451,-3.0453,-3.0468,-3.0479,-3.0492,-3.0539,-3.0537,-3.0562,-3.0571,-3.0578,-3.0584,-3.0609,-3.062,-3.0502,-3.0502,-3.0502,0,0,-3.0463,-3.0459,-3.0473,-3.0486,-3.0486,-3.0507,-3.0462,-3.0486,-3.05,-3.046,-3.0492,-3.0487,-3.0488,-3.0529,-3.0546,-3.0527,-3.0616,-3.0584,-3.059,-3.0592,-3.0615,-3.0626,-3.0636,-3.0505,-3.0505,-3.0504,0,0,-3.0538,-3.0537,-3.0569,-3.057,-3.0571,-3.056,-3.0568,-3.0562,-3.0558,-3.0589,-3.0559,-3.0576,-3.0602,-3.0604,-3.0609,-3.0683,-3.0661,-3.0688,-3.0735,-3.076,-3.0769,-3.0777,-3.0805,-3.0815,-3.0694,-3.0694,-3.0694,0,-3.0581,-3.0611,-3.0588,-3.0614,-3.0621,-3.0585,-3.0618,-3.062,-3.0625,-3.063,-3.0609,-3.0641,-3.0639,-3.068,-3.0698,-3.0702,-3.0711,-3.0689,-3.077,-3.0777,-3.0785,-3.0811,-3.0821,-3.0697,-3.0697,-3.0697,-3.0696,0,-3.0665,-3.0686,-3.0712,-3.0718,-3.0727,-3.0756,-3.0738,-3.075,-3.0733,-3.0724,-3.0756,-3.0752,-3.0764,-3.0772,-3.0756,-3.0811,-3.0799,-3.0774,-3.0736,-3.08,-3.0824,-3.0833,-3.0702,-3.0701,-3.07,-3.0699,0,0,-3.0774,-3.0767,-3.0777,-3.078,-3.0778,-3.0794,-3.0821,-3.0832,-3.0843,-3.0848,-3.087,-3.0893,-3.0869,-3.0875,-3.0858,-3.088,-3.094,-3.0852,-3.0852,-3.0869,-3.1,-3.102,-3.1032,-3.0924,-3.0926,-3.0927,-3.1001,0,-3.0848,-3.0894,-3.0874,-3.0923,-3.0942,-3.0908,-3.0931,-3.0933,-3.0924,-3.0939,-3.093,-3.0947,-3.0914,-3.0917,-3.0937,-3.0929,-3.0966,-3.0923,-3.0945,-3.0946,-3.0947,-3.1044,-3.1065,-3.1135,-3.101,-3.1011,-3.1012,0,-3.0939,-3.0948,-3.0999,-3.0993,-3.1,-3.1022,-3.1031,-3.1045,-3.1046,-3.1038,-3.1044,-3.1023,-3.1049,-3.101,-3.1046,-3.1017,-3.1024,-3.1022,-3.1024,-3.1026,-3.0984,-3.105,-3.1157,-3.1168,-3.1027,-3.1026,-3.1025,0,-3.1016,-3.104,-3.1073,-3.1076,-3.107,-3.1086,-3.1084,-3.1083,-3.1091,-3.1099,-3.1104,-3.1114,-3.112,-3.1129,-3.1111,-3.1085,-3.1149,-3.1109,-3.1144,-3.1145,-3.116,-3.116,-3.1271,-3.1163,-3.1163,-3.1163,-3.1163,0,-3.11,-3.1133,-3.1107,-3.1128,-3.1163,-3.1139,-3.1175,-3.1169,-3.1168,-3.1187,-3.1157,-3.1176,-3.115,-3.1166,-3.1151,-3.1184,-3.1186,-3.1181,-3.1177,-3.1184,-3.1185,-3.119,-3.1185,-3.1166,-3.1165,-3.1165,-3.1164,0,-3.1192,-3.1176,-3.121,-3.1202,-3.1201,-3.1227,-3.122,-3.1238,-3.1228,-3.1252,-3.1256,-3.124,-3.1257,-3.1239,-3.1255,-3.1245,-3.1288,-3.1277,-3.1289,-3.1286,-3.1322,-3.1319,-3.1441,-3.1456,-3.1338,-3.1339,-3.134,0,-3.1248,-3.1272,-3.1266,-3.1277,-3.1277,-3.1294,-3.1303,-3.128,-3.129,-3.1292,-3.131,-3.1324,-3.1335,-3.1364,-3.1353,-3.1365,-3.1354,-3.1395,-3.1356,-3.1362,-3.1356,-3.1355,-3.1358,-3.1404,-3.1406,-3.1407,-3.1408,0,-3.1349,-3.134,-3.1353,-3.1363,-3.1374,-3.1381,-3.1386,-3.1396,-3.1372,-3.1385,-3.1402,-3.141,-3.1426,-3.1441,-3.1449,-3.1447,-3.1424,-3.142,-3.1429,-3.1437,-3.1444,-3.1442,-3.1312,-3.1418,-3.1417,-3.1416,-3.1415,-3.1415,-3.1425,-3.1445,-3.1444,-3.146,-3.1461,-3.1466,-3.1483,-3.1475,-3.1488,-3.15,-3.1485,-3.1506,-3.1506,-3.1515,-3.1515,-3.1531,-3.1514,-3.1526,-3.153,-3.1534,-3.154,-3.144,-3.1533,-3.1532,-3.1532,-3.1532,-3.1532,0,-3.1525,-3.1523,-3.1537,-3.1545,-3.1557,-3.1534,-3.1538,-3.1549,-3.1569,-3.157,-3.1581,-3.16,-3.1614,-3.1605,-3.1617,-3.1631,-3.1621,-3.1635,-3.1635,-3.1635,-3.1554,-3.1546,-3.1644,-3.1644,-3.1644,-3.1644,-3.1644,-3.1644,-3.1579,-3.1612,-3.1603,-3.1635,-3.1632,-3.1653,-3.1657,-3.1662,-3.1663,-3.1686,-3.1698,-3.1691,-3.1688,-3.1699,-3.1711,-3.1708,-3.1714,-3.1733,-3.1726,-3.1651,-3.164,-3.163,-3.1622,-3.1734,-3.1734,-3.1805,-3.1806,-3.1806]}]]